Torna al catalogo

FENGYUN 1C DEB

AttivoPO
NORAD 36163·DEBRIS·🇨🇳 China

Lanciato May 10, 1999 da Taiyuan Satellite Launch Center

Loading…

Prossimi Passaggi (prossime 24 ore)

TLE

AggiornatoSource: Space-Track

Epoca: Sep 13, 2026, 22:11 UTC

1 36163U 99025DSL 26256.92468889  .00010159  00000-0  17875-2 0  9995
2 36163  99.0740 133.8186 0033770 318.2764  41.5862 14.67454725932130

Traccia FENGYUN 1C DEB in tempo reale con AllMySat

Download on the App Store